Springfield, IL

12:09 AM CST on January 20, 2017 (GMT -0600)
Capital

Weather History for KSPI - December, 2013

Change the Weather History Date:

Saturday, December 7, 2013

  Actual Average Record
Temperature  
Mean Temperature 16 °F 33 °F  
Max Temperature 24 °F 41 °F 67 °F (1916)
Min Temperature 7 °F 25 °F -7 °F (1882)
Degree Days  
Heating Degree Days 49 32  
Month to date heating degree days 219 216  
Since 1 July heating degree days 1401 1284  
Cooling Degree Days 0 0  
Month to date cooling degree days 0 0  
Year to date cooling degree days 1145 1122  
Moisture  
Dew Point 3 °F    
Average Humidity 60    
Maximum Humidity 80    
Minimum Humidity 39    
Precipitation  
Precipitation 0.00 in 0.10 in 1.00 in (1987)
Month to date precipitation T 0.66  
Year to date precipitation 36.75 35.57  
Snow  
Snow 0.00 in 0.20 in 3.70 in (1909)
Month to date snowfall T 0.9  
Since 1 July snowfall 0.7 1.5  
Snow Depth 0.00 in    
Sea Level Pressure  
Sea Level Pressure 30.66 in    
Wind  
Wind Speed 7 mph (North)    
Max Wind Speed 13 mph    
Max Gust Speed 17 mph    
Visibility 10 miles    
Events      
T = Trace of Precipitation, MM = Missing Value Source: NWS Daily Summary

Daily Weather History Graph

Daily Weather History Graph

Search for Another Location

Airport or City:

Trip Planner

Search our weather history database for the weather conditions in past years. The results will help you decide how hot, cold, wet, or windy it might be!

Date:

Astronomy

Dec. 07, 2013 Rise Set
Actual Time 7:06 AM CST 4:33 PM CST
Civil Twilight 6:36 AM CST 5:03 PM CST
Nautical Twilight 6:02 AM CST 5:37 PM CST
Astronomical Twilight 5:30 AM CST 6:10 PM CST
Moon 10:52 AM CST (12/7) 10:14 PM CST (12/7)
Length of Visible Light 10h 27m
Length of Day
9h 26m
Waxing Crescent, 29% of the Moon is Illuminated
Dec 7
Waxing Crescent
Dec 9
First Quarter
Dec 17
Full
Dec 25
Last Quarter
Jan 1
New

Hourly Weather History & Observations

Time (CST) Temp. Windchill Dew Point Humidity Pressure Visibility Wind Dir Wind Speed Gust Speed Precip Events Conditions
12:52 AM 10.9 °F 0.2 °F 3.9 °F 73% 30.63 in 10.0 mi NNW 6.9 mph - N/A   Clear
1:52 AM 10.0 °F -1.9 °F 3.9 °F 76% 30.64 in 10.0 mi NNW 8.1 mph - N/A   Clear
2:52 AM 10.0 °F 0.4 °F 3.0 °F 73% 30.65 in 10.0 mi NNW 5.8 mph - N/A   Clear
3:52 AM 9.0 °F 0.6 °F 3.0 °F 77% 30.67 in 10.0 mi NNW 4.6 mph - N/A   Clear
4:52 AM 8.1 °F -0.5 °F 3.0 °F 80% 30.68 in 10.0 mi NNW 4.6 mph - N/A   Clear
5:52 AM 8.1 °F -3.2 °F 3.0 °F 80% 30.70 in 10.0 mi NNW 6.9 mph - N/A   Clear
6:52 AM 8.1 °F -2.0 °F 1.9 °F 76% 30.71 in 10.0 mi NNW 5.8 mph - N/A   Clear
7:52 AM 9.0 °F -2.2 °F 3.0 °F 77% 30.72 in 10.0 mi NNW 6.9 mph - N/A   Clear
8:52 AM 10.9 °F -2.6 °F 3.9 °F 73% 30.74 in 10.0 mi North 10.4 mph - N/A   Clear
9:52 AM 14.0 °F 2.9 °F 3.9 °F 64% 30.75 in 10.0 mi North 8.1 mph - N/A   Clear
10:52 AM 17.1 °F 6.6 °F 5.0 °F 59% 30.74 in 10.0 mi North 8.1 mph - N/A   Clear
11:52 AM 19.9 °F 10.1 °F 3.9 °F 50% 30.71 in 10.0 mi North 8.1 mph - N/A   Clear
12:52 PM 21.9 °F 13.4 °F 1.9 °F 42% 30.70 in 10.0 mi North 6.9 mph - N/A   Clear
1:52 PM 21.9 °F 11.7 °F -0.0 °F 38% 30.67 in 10.0 mi NNE 9.2 mph - N/A   Clear
2:52 PM 23.0 °F 13.9 °F 1.0 °F 39% 30.64 in 10.0 mi NE 8.1 mph - N/A   Clear
3:52 PM 21.0 °F 14.6 °F -0.0 °F 40% 30.65 in 10.0 mi North 4.6 mph - N/A   Clear
4:52 PM 18.0 °F 11.1 °F 1.0 °F 48% 30.65 in 10.0 mi North 4.6 mph - N/A   Clear
5:52 PM 16.0 °F 7.4 °F 1.9 °F 54% 30.64 in 10.0 mi NE 5.8 mph - N/A   Clear
6:52 PM 15.1 °F 5.2 °F 1.9 °F 56% 30.62 in 10.0 mi ENE 6.9 mph - N/A   Clear
7:52 PM 16.0 °F 4.4 °F 3.9 °F 59% 30.59 in 10.0 mi ENE 9.2 mph - N/A   Clear
8:52 PM 16.0 °F 6.3 °F 3.9 °F 59% 30.57 in 10.0 mi ENE 6.9 mph - N/A   Clear
9:52 PM 16.0 °F - 3.9 °F 59% 30.61 in 10.0 mi Calm Calm - N/A   Clear
10:52 PM 16.0 °F 6.3 °F 6.1 °F 65% 30.58 in 10.0 mi NNE 6.9 mph - N/A   Clear
11:52 PM 16.0 °F 5.3 °F 6.1 °F 65% 30.54 in 10.0 mi NE 8.1 mph - N/A   Clear